#datint,netname,site,siteID,timestamp,IntT,BattV,AirT2,AirT,AirT_Avg,AirT_Max,AirT_Min,RH_Avg,RH_Max,RH_Min,EA_Avg,Td_Avg,Td_Max,Td_Min,WindS_Smp,WindS_Avg,WindD_Avg,WindD_SD,WindS_Max,ETo,ETr,SoilT4,SoilT8,SoilVWC8,SolarW_Avg,wetstate_Avg,wetT_Avg,Precip_accum,Precip_WPG,Precip_TB
15min,AgWx,beryljct,423,04DEC2019:00:00:00,27.5,12.85,25.3,24.6,24.7,24.9,24.6,98,98,98,0.440,24.1,24.3,24.0,0,0.8,100,2.0,2.0,-0.00016,-0.00023,34.3,36.5,18,0,.,.,7.97,0.00,0.00
15min,AgWx,beryljct,423,04DEC2019:00:15:00,27.3,12.85,25.7,25.3,25.0,25.3,24.7,98,98,98,0.453,24.4,24.8,24.1,1.228,1.1,5.4,74,2.1,-0.00016,-0.00021,34.3,36.5,19,0,.,.,7.97,0.00,0.00
15min,AgWx,beryljct,423,04DEC2019:00:30:00,27.1,12.83,25.4,25.4,25.2,25.4,24.8,98,98,97,0.457,24.6,25.0,24.2,1.754,1.7,316,7.0,2.9,-0.00014,-0.00018,34.3,36.5,18,0,.,.,7.97,0.00,0.00
15min,AgWx,beryljct,423,04DEC2019:00:45:00,27.0,12.83,26.1,25.6,25.4,25.8,25.1,98,99,98,0.464,25.0,25.4,24.6,1.556,0.8,315,0.0,1.7,-0.00017,-0.00024,34.3,36.5,19,0,.,.,7.97,0.00,0.00
15min,AgWx,beryljct,423,04DEC2019:01:00:00,27.0,12.82,26.4,25.4,25.2,25.9,24.7,98,99,98,0.458,24.8,25.6,24.3,1.425,1.8,317,7.0,2.8,-0.00014,-0.00018,34.3,36.5,18,0,.,.,7.97,0.00,0.00
15min,AgWx,beryljct,423,04DEC2019:01:15:00,27.0,12.81,25.2,25.1,25.7,26.2,25.1,99,99,98,0.453,25.4,26.0,24.7,3.727,2.6,343,6.6,3.9,-0.00012,-0.00015,34.3,36.5,19,0,.,.,7.97,0.00,0.00
15min,AgWx,beryljct,423,04DEC2019:01:30:00,26.8,12.81,23.3,23.6,24.4,25.1,23.6,98,98,98,0.423,24.0,24.7,23.1,2.477,3.2,345,4.4,4.1,-0.00011,-0.00013,34.3,36.5,18,0,.,.,7.97,0.00,0.00
15min,AgWx,beryljct,423,04DEC2019:01:45:00,26.1,12.8,22.8,22.3,22.4,23.5,21.9,98,98,97,0.402,21.9,23.0,21.3,1.184,1.3,324,3.2,2.9,-0.00014,-0.00019,34.3,36.5,18,0,.,.,7.97,0.00,0.00
15min,AgWx,beryljct,423,04DEC2019:02:00:00,25.6,12.79,24.4,24.1,23.4,24.4,22.3,99,99,98,0.436,23.1,24.1,21.9,1.491,1.2,347,10,2.3,-0.00015,-0.00020,34.3,36.5,19,0,.,.,7.97,0.00,0.00
15min,AgWx,beryljct,423,04DEC2019:02:15:00,25.4,12.79,23.0,22.4,22.6,24.1,22.1,98,99,97,0.400,22.1,23.8,21.6,0,0.2,333,3.2,1.4,-0.00018,-0.00028,34.3,36.5,18,0,.,.,7.97,0.00,0.00
15min,AgWx,beryljct,423,04DEC2019:02:30:00,25.1,12.78,24.0,23.1,22.6,23.4,22.0,98,98,97,0.413,22.1,22.9,21.3,0.658,0.5,107,54,2.9,-0.00017,-0.00025,34.3,36.5,18,0,.,.,7.97,0.00,0.00
15min,AgWx,beryljct,423,04DEC2019:02:45:00,25.1,12.77,23.1,23.6,23.6,24.2,23.1,98,98,98,0.423,23.1,23.8,22.6,3.88,1.1,157,11,4.3,-0.00015,-0.00021,34.3,36.5,19,0,.,.,7.97,0.00,0.00
15min,AgWx,beryljct,423,04DEC2019:03:00:00,25.1,12.77,24.5,23.9,23.4,23.9,23.2,98,98,97,0.429,22.8,23.4,22.5,0,1.1,211,0.1,3.9,-0.00015,-0.00020,34.3,36.5,19,0,.,.,7.97,0.00,0.00
15min,AgWx,beryljct,423,04DEC2019:03:15:00,25.2,12.75,23.2,23.0,23.7,24.1,22.9,98,98,97,0.409,23.1,23.6,22.2,1.315,1.2,2.1,34,2.9,-0.00015,-0.00021,34.3,36.5,18,0,.,.,7.96,0.00,0.00
15min,AgWx,beryljct,423,04DEC2019:03:30:00,25.2,12.75,23.2,22.9,22.9,23.1,22.6,97,98,97,0.408,22.2,22.5,21.9,0,0.6,41,0.0,1.4,-0.00017,-0.00024,34.3,36.5,18,0,.,.,7.97,0.00,0.00
15min,AgWx,beryljct,423,04DEC2019:03:45:00,25.1,12.75,23.3,23.1,22.9,23.2,22.7,97,98,97,0.412,22.3,22.6,22.0,1.776,1.6,131,29,4.0,-0.00013,-0.00017,34.3,36.5,18,0,.,.,7.97,0.00,0.00
15min,AgWx,beryljct,423,04DEC2019:04:00:00,25.1,12.74,23.4,23.1,23.2,23.3,23.0,98,98,97,0.411,22.5,22.7,22.4,2.368,1.1,144,1.8,2.4,-0.00015,-0.00020,34.3,36.5,18,0,.,.,7.97,0.00,0.00
15min,AgWx,beryljct,423,04DEC2019:04:15:00,25.2,12.73,24.0,23.7,23.4,23.7,23.0,98,98,97,0.423,22.9,23.2,22.3,1.885,2.1,150,0.1,2.9,-0.00012,-0.00016,34.3,36.5,18,0,.,.,7.97,0.00,0.00
15min,AgWx,beryljct,423,04DEC2019:04:30:00,25.3,12.73,23.7,23.5,23.7,23.9,23.4,98,98,98,0.420,23.2,23.3,22.9,1.995,2.1,146,6.1,2.9,-0.00013,-0.00016,34.3,36.5,19,0,.,.,7.97,0.00,0.00
15min,AgWx,beryljct,423,04DEC2019:04:45:00,25.4,12.72,23.8,23.5,23.4,23.5,23.2,98,98,98,0.421,22.8,23.0,22.6,1.293,1.6,128,4.4,2.3,-0.00014,-0.00018,34.3,36.5,18,0,.,.,7.97,0.00,0.00
15min,AgWx,beryljct,423,04DEC2019:05:00:00,25.3,12.71,23.9,23.5,23.3,23.6,23.2,98,98,98,0.422,22.8,23.1,22.6,0,0.2,120,0.0,1.4,-0.00019,-0.00029,34.3,36.5,18,0,.,.,7.97,0.00,0.00
15min,AgWx,beryljct,423,04DEC2019:05:15:00,25.4,12.7,24.6,24.2,23.9,24.4,23.5,98,98,98,0.436,23.4,23.9,23.0,0.11,0.0,128,0.0,0.1,-0.00020,-0.00032,34.3,36.5,18,0,.,.,7.97,0.00,0.00
15min,AgWx,beryljct,423,04DEC2019:05:30:00,25.5,12.71,24.6,24.3,24.1,24.4,23.9,98,98,98,0.436,23.6,24.0,23.3,1.118,0.5,128,0.0,1.5,-0.00018,-0.00026,34.3,36.5,18,0,.,.,7.97,0.00,0.00
15min,AgWx,beryljct,423,04DEC2019:05:45:00,25.6,12.69,24.2,23.8,23.9,24.3,23.7,98,98,98,0.426,23.4,23.8,23.2,2.214,1.1,127,0.5,2.4,-0.00015,-0.00021,34.3,36.5,18,0,.,.,7.97,0.00,0.00
15min,AgWx,beryljct,423,04DEC2019:06:00:00,25.7,12.69,24.7,24.2,24.1,24.3,23.8,98,98,98,0.435,23.6,23.8,23.2,0.285,1.5,151,19,3.1,-0.00014,-0.00018,34.3,36.5,18,0,.,.,7.97,0.00,0.00
15min,AgWx,beryljct,423,04DEC2019:06:15:00,25.8,12.69,24.3,23.9,24.2,24.4,23.9,98,98,98,0.428,23.7,23.9,23.3,0.767,0.6,167,0.1,1.5,-0.00017,-0.00025,34.3,36.5,18,0,.,.,7.97,0.00,0.00
15min,AgWx,beryljct,423,04DEC2019:06:30:00,25.8,12.69,23.4,23.6,24.2,24.5,23.6,98,98,97,0.420,23.6,24.0,22.9,0,0.4,60,39,1.8,-0.00018,-0.00027,34.3,36.5,19,0,.,.,7.97,0.00,0.00
15min,AgWx,beryljct,423,04DEC2019:06:45:00,25.5,12.68,24.1,23.5,23.4,23.6,23.2,97,98,97,0.420,22.8,23.0,22.5,1.666,0.2,41,0.0,1.7,-0.00019,-0.00029,34.3,36.5,18,0,.,.,7.97,0.00,0.00
15min,AgWx,beryljct,423,04DEC2019:07:00:00,25.2,12.68,22.9,22.6,23.3,23.6,22.5,97,98,97,0.400,22.7,23.0,21.8,0,0.5,45,10,1.7,0.00001,0.00001,34.3,36.5,18,0,.,.,7.97,0.00,0.00
15min,AgWx,beryljct,423,04DEC2019:07:15:00,24.8,12.68,23.5,23.2,23.1,23.4,22.5,98,98,97,0.415,22.5,22.9,21.7,1.644,1.3,173,14,2.6,0.00001,0.00001,34.3,36.5,18,0,.,.,7.97,0.00,0.00
15min,AgWx,beryljct,423,04DEC2019:07:30:00,24.5,12.66,23.2,23.0,23.2,23.3,23.0,98,98,98,0.411,22.6,22.7,22.4,0.965,1.5,167,4.0,2.1,0.00001,0.00002,34.3,36.5,19,1,.,.,7.97,0.00,0.00
15min,AgWx,beryljct,423,04DEC2019:07:45:00,24.4,12.66,22.8,22.4,22.7,23.0,22.2,97,98,97,0.398,22.0,22.4,21.5,2.083,2.2,150,6.4,3.0,0.00003,0.00004,34.3,36.5,18,5,.,.,7.97,0.00,0.00
15min,AgWx,beryljct,423,04DEC2019:08:00:00,24.5,12.69,22.9,22.9,23.0,23.5,22.4,98,98,97,0.407,22.4,22.9,21.6,4.056,3.3,156,10,4.3,0.00006,0.00007,34.3,36.5,18,14,.,.,7.97,0.00,0.00
15min,AgWx,beryljct,423,04DEC2019:08:15:00,24.7,12.7,24.0,23.3,22.9,23.3,22.7,97,98,97,0.417,22.2,22.7,21.9,2.981,3.5,138,8.6,4.3,0.00010,0.00011,34.2,36.4,18,27,.,.,7.97,0.00,0.00
15min,AgWx,beryljct,423,04DEC2019:08:30:00,25.1,12.75,24.4,24.4,24.1,24.5,23.4,98,98,98,0.437,23.6,24.0,22.8,4.341,3.0,217,45,4.3,0.00013,0.00015,34.2,36.4,18,38,.,.,7.97,0.00,0.00
15min,AgWx,beryljct,423,04DEC2019:08:45:00,25.6,12.85,23.9,23.7,23.9,24.3,23.7,98,98,97,0.423,23.3,23.8,23.0,6.116,5.1,325,5.4,6.5,0.00021,0.00023,34.2,36.4,19,68,.,.,7.97,0.00,0.00
15min,AgWx,beryljct,423,04DEC2019:09:00:00,26.2,12.97,24.5,24.2,23.9,24.2,23.6,98,98,97,0.434,23.3,23.7,23.0,2.916,3.8,345,13,5.8,0.00033,0.00036,34.3,36.4,18,122,.,.,7.97,0.00,0.00
15min,AgWx,beryljct,423,04DEC2019:09:15:00,27.0,13.14,24.8,24.7,24.5,24.8,24.2,98,98,98,0.443,24.0,24.3,23.7,2.74,2.9,353,6.8,4.1,0.00039,0.00042,34.2,36.4,18,132,.,.,7.97,0.00,0.00
15min,AgWx,beryljct,423,04DEC2019:09:30:00,27.9,13.44,25.8,25.8,25.2,25.8,24.6,98,98,98,0.465,24.8,25.4,24.2,1.644,1.8,343,7.4,2.9,0.00049,0.00052,34.2,36.4,18,159,.,.,7.97,0.00,0.00
15min,AgWx,beryljct,423,04DEC2019:09:45:00,29.0,13.62,27.1,26.8,26.2,26.8,25.7,98,99,98,0.486,25.8,26.5,25.3,2.455,2.4,0.5,13,3.1,0.00058,0.00062,34.2,36.5,18,195,.,.,7.96,0.00,0.00
15min,AgWx,beryljct,423,04DEC2019:10:00:00,30.1,14.79,27.4,27.1,26.9,27.2,26.6,99,99,98,0.492,26.5,26.8,26.2,1.776,2.3,356,11,3.1,0.00075,0.00080,34.2,36.4,19,255,.,.,7.96,0.00,0.00
15min,AgWx,beryljct,423,04DEC2019:10:15:00,31.8,14.75,29.4,28.9,27.8,28.9,27.2,99,99,99,0.534,27.5,28.7,26.8,3.354,2.4,348,20,3.7,0.00100,0.00106,34.2,36.4,19,339,.,.,7.96,0.00,0.00
15min,AgWx,beryljct,423,04DEC2019:10:30:00,33.4,14.71,29.8,29.8,29.6,30.0,29.1,99,99,99,0.552,29.4,29.9,28.8,3.42,3.2,349,18,4.3,0.00091,0.00097,34.2,36.5,19,298,.,.,7.96,0.00,0.00
15min,AgWx,beryljct,423,04DEC2019:10:45:00,34.5,14.54,29.9,29.9,29.8,30.0,29.6,99,99,99,0.557,29.6,29.8,29.3,6.116,4.9,354,11,6.8,0.00074,0.00079,34.2,36.4,18,253,.,.,7.96,0.00,0.00
15min,AgWx,beryljct,423,04DEC2019:11:00:00,35.0,14.34,30.2,30.1,30.0,30.2,29.8,99,99,99,0.560,29.7,29.9,29.6,4.231,4.8,351,11,6.1,0.00072,0.00076,34.2,36.4,18,239,.,.,7.96,0.00,0.00
15min,AgWx,beryljct,423,04DEC2019:11:15:00,35.4,14.65,30.3,30.5,30.3,30.6,30.0,99,99,98,0.563,29.9,30.1,29.7,3.025,2.9,7.0,12,5.2,0.00100,0.00106,34.2,36.4,19,317,.,.,7.96,0.00,0.00
15min,AgWx,beryljct,423,04DEC2019:11:30:00,36.2,14.64,31.0,31.0,30.7,31.1,30.5,97,98,97,0.567,30.0,30.2,29.9,1.535,1.9,354,24,3.3,0.00103,0.00110,34.2,36.4,19,303,.,.,7.96,0.00,0.00
15min,AgWx,beryljct,423,04DEC2019:11:45:00,37.0,14.64,31.7,31.6,31.4,31.6,31.0,96,97,94,0.568,30.2,30.4,30.0,2.368,1.2,14,14,2.6,0.00113,0.00121,34.2,36.4,19,319,.,.,7.96,0.00,0.00
15min,AgWx,beryljct,423,04DEC2019:12:00:00,38.0,14.63,32.7,32.3,31.8,32.3,31.6,94,94,93,0.576,30.3,30.6,30.1,1.293,1.2,26,33,2.3,0.00133,0.00143,34.2,36.4,18,383,.,.,7.96,0.00,0.00
15min,AgWx,beryljct,423,04DEC2019:12:15:00,39.0,14.59,32.2,32.5,32.3,32.6,32.1,92,93,91,0.569,30.3,30.7,30.1,0,0.5,8.7,14,1.4,0.00133,0.00143,34.2,36.4,18,366,.,.,7.96,0.00,0.00
15min,AgWx,beryljct,423,04DEC2019:12:30:00,39.6,14.54,32.4,32.3,32.3,32.5,32.2,92,93,91,0.569,30.2,30.4,30.0,3.464,1.9,90,2.2,4.1,0.00116,0.00125,34.2,36.4,19,336,.,.,7.96,0.00,0.00
15min,AgWx,beryljct,423,04DEC2019:12:45:00,39.7,14.58,32.4,32.3,32.4,32.6,32.3,92,93,92,0.573,30.4,30.6,30.3,2.916,2.9,88,4.7,3.9,0.00143,0.00154,34.2,36.4,19,452,.,.,7.96,0.00,0.00
15min,AgWx,beryljct,423,04DEC2019:13:00:00,39.7,14.2,32.9,32.9,32.6,32.9,32.3,92,93,91,0.578,30.6,30.8,30.4,2.762,2.3,87,8.8,3.7,0.00121,0.00130,34.2,36.4,18,367,.,.,7.96,0.00,0.00
15min,AgWx,beryljct,423,04DEC2019:13:15:00,39.9,14.14,32.9,32.9,32.9,33.0,32.8,91,92,90,0.571,30.6,30.8,30.3,0.986,1.4,109,3.9,3.4,0.00128,0.00138,34.3,36.4,18,383,.,.,7.96,0.00,0.00
15min,AgWx,beryljct,423,04DEC2019:13:30:00,40.1,14.17,33.1,33.0,32.9,33.1,32.6,91,93,90,0.575,30.5,31.4,30.2,2.105,1.7,130,5.5,3.1,0.00115,0.00124,34.2,36.4,18,353,.,.,7.96,0.00,0.00
15min,AgWx,beryljct,423,04DEC2019:13:45:00,40.4,14.23,34.4,33.6,33.0,33.6,32.9,90,91,90,0.591,30.5,31.2,30.3,0.548,1.4,129,4.4,2.2,0.00132,0.00142,34.2,36.4,18,406,.,.,7.96,0.00,0.00
15min,AgWx,beryljct,423,04DEC2019:14:00:00,41.3,14.13,33.4,33.4,34.5,36.4,33.3,86,91,81,0.578,30.8,31.9,30.0,1.732,1.2,250,15,2.9,0.00126,0.00136,34.2,36.4,18,374,.,.,7.96,0.00,0.00
15min,AgWx,beryljct,423,04DEC2019:14:15:00,41.6,14.13,34.0,34.8,33.9,35.1,33.3,88,90,85,0.581,30.6,31.2,30.1,0.965,0.5,253,0.1,1.7,0.00085,0.00091,34.2,36.4,18,265,.,.,7.96,0.00,0.00
15min,AgWx,beryljct,423,04DEC2019:14:30:00,41.5,14.17,33.6,33.6,34.0,34.7,33.6,87,88,85,0.573,30.6,31.1,30.1,2.017,0.8,252,6.0,2.0,0.00059,0.00064,34.3,36.4,18,187,.,.,7.96,0.01,0.00
15min,AgWx,beryljct,423,04DEC2019:14:45:00,40.9,13.5,34.2,34.0,33.8,34.1,33.5,88,89,87,0.578,30.6,30.8,30.5,1.096,1.6,267,7.1,2.2,0.00046,0.00051,34.3,36.4,18,153,.,.,7.96,0.00,0.00
15min,AgWx,beryljct,423,04DEC2019:15:00:00,40.1,13.38,34.7,34.4,34.2,34.5,33.9,88,88,87,0.586,30.8,31.1,30.6,2.455,1.7,259,17,2.7,0.00031,0.00035,34.2,36.4,18,96,.,.,7.96,0.00,0.00
15min,AgWx,beryljct,423,04DEC2019:15:15:00,39.0,13.3,34.1,34.1,34.4,34.6,34.1,87,89,87,0.589,31.0,31.2,30.9,1.556,1.6,284,37,2.8,0.00021,0.00025,34.2,36.4,18,65,.,.,7.97,0.01,0.00
15min,AgWx,beryljct,423,04DEC2019:15:30:00,38.0,13.25,33.8,33.7,33.8,34.1,33.6,91,93,89,0.608,31.4,31.9,31.0,3.617,2.6,309,28,4.0,0.00013,0.00017,34.2,36.4,18,47,.,.,7.97,0.01,0.00
15min,AgWx,beryljct,423,04DEC2019:15:45:00,37.1,13.2,33.5,33.3,33.5,33.7,33.3,94,95,93,0.613,32.0,32.2,31.8,4.626,4.4,321,28,5.3,0.00001,0.00003,34.3,36.4,18,43,.,.,7.99,0.01,0.01
15min,AgWx,beryljct,423,04DEC2019:16:00:00,36.4,13.16,33.8,33.5,33.4,33.6,33.2,96,96,95,0.619,32.3,32.5,32.0,4.406,3.6,255,44,4.7,-0.00020,-0.00019,34.2,36.4,18,30,.,.,8.01,0.02,0.03
15min,AgWx,beryljct,423,04DEC2019:16:15:00,35.9,13.14,33.5,33.3,33.4,33.5,33.2,96,97,95,0.622,32.4,32.5,32.2,3.639,2.8,355,11,4.7,-0.00026,-0.00027,34.2,36.4,18,25,.,.,8.03,0.02,0.02
15min,AgWx,beryljct,423,04DEC2019:16:30:00,35.6,13.11,32.9,32.8,33.0,33.3,32.8,97,98,97,0.616,32.3,32.5,32.2,3.617,4.7,340,10,5.9,-0.00006,-0.00007,34.2,36.4,18,23,.,.,8.03,0.00,0.00
15min,AgWx,beryljct,423,04DEC2019:16:45:00,35.3,13.08,33.2,33.0,32.8,33.0,32.7,98,98,98,0.623,32.3,32.5,32.2,4.406,4.2,288,27,5.6,-0.00008,-0.00009,34.3,36.4,19,13,.,.,8.03,0.00,0.01
15min,AgWx,beryljct,423,04DEC2019:17:00:00,35.1,13.05,33.3,33.0,33.1,33.3,33.0,98,98,97,0.619,32.6,32.7,32.3,3.771,2.8,305,39,5.4,-0.00011,-0.00013,34.3,36.4,18,8,.,.,8.05,0.02,0.02
15min,AgWx,beryljct,423,04DEC2019:17:15:00,35.0,13.04,33.0,32.7,32.9,33.0,32.7,98,98,97,0.615,32.3,32.4,32.2,2.324,3.1,322,18,3.8,-0.00011,-0.00013,34.3,36.4,19,3,.,.,8.07,0.02,0.01
15min,AgWx,beryljct,423,04DEC2019:17:30:00,34.8,13.02,33.1,33.0,32.8,33.0,32.7,98,98,98,0.623,32.3,32.6,32.2,2.762,3.7,274,12,4.9,-0.00010,-0.00012,34.3,36.4,18,1,.,.,8.07,0.00,0.01
15min,AgWx,beryljct,423,04DEC2019:17:45:00,34.8,13.02,33.5,33.2,33.1,33.4,32.9,98,98,98,0.629,32.6,32.9,32.4,2.938,3.1,228,43,5.1,-0.00011,-0.00014,34.3,36.4,19,0,.,.,8.08,0.01,0.01
15min,AgWx,beryljct,423,04DEC2019:18:00:00,34.8,13.01,32.8,32.7,32.9,33.3,32.7,98,99,98,0.620,32.5,32.8,32.3,3.946,2.8,141,24,5.2,-0.00012,-0.00015,34.3,36.4,18,0,.,.,8.09,0.00,0.01
15min,AgWx,beryljct,423,04DEC2019:18:15:00,34.7,12.99,32.8,32.6,32.6,32.7,32.5,99,99,99,0.619,32.3,32.4,32.2,3.288,2.8,128,32,5.2,-0.00012,-0.00015,34.2,36.4,19,0,.,.,8.09,0.00,0.00
15min,AgWx,beryljct,423,04DEC2019:18:30:00,34.6,12.99,32.8,32.6,32.5,32.6,32.4,99,99,99,0.620,32.3,32.4,32.2,2.105,2.4,174,23,4.3,-0.00013,-0.00016,34.2,36.4,18,0,.,.,8.09,0.00,0.01
15min,AgWx,beryljct,423,04DEC2019:18:45:00,34.5,12.97,32.7,32.4,32.6,32.8,32.4,99,100,99,0.619,32.4,32.7,32.2,4.604,2.4,168,28,4.6,-0.00013,-0.00016,34.2,36.4,19,0,.,.,8.09,0.00,0.00
15min,AgWx,beryljct,423,04DEC2019:19:00:00,34.5,12.97,32.5,32.2,32.4,32.6,32.1,100,100,99,0.613,32.2,32.5,32.0,5.305,4.1,89,19,5.9,-0.00010,-0.00012,34.2,36.4,18,0,.,.,8.10,0.00,0.00
15min,AgWx,beryljct,423,04DEC2019:19:15:00,34.4,12.95,32.9,32.5,32.3,32.5,32.2,100,100,100,0.622,32.3,32.5,32.1,5.502,4.7,94,15,6.1,-0.00009,-0.00011,34.2,36.4,19,0,.,.,8.09,0.00,0.00
15min,AgWx,beryljct,423,04DEC2019:19:30:00,34.2,12.95,32.6,32.3,32.5,32.6,32.3,100,100,100,0.617,32.4,32.5,32.2,2.653,3.1,149,20,4.9,-0.00012,-0.00014,34.2,36.4,18,0,.,.,8.10,0.00,0.00
15min,AgWx,beryljct,423,04DEC2019:19:45:00,34.1,12.94,32.7,32.4,32.4,32.4,32.3,100,100,100,0.619,32.3,32.4,32.2,3.529,3.2,193,13,4.0,-0.00011,-0.00014,34.2,36.4,20,0,.,.,8.10,0.00,0.00
15min,AgWx,beryljct,423,04DEC2019:20:00:00,34.1,12.94,32.9,32.7,32.5,32.7,32.4,100,100,100,0.628,32.5,32.7,32.3,2.499,3.3,212,11,4.6,-0.00011,-0.00014,34.2,36.4,18,0,.,.,8.09,0.00,0.00
15min,AgWx,beryljct,423,04DEC2019:20:15:00,34.3,12.94,33.4,33.0,32.9,33.1,32.7,100,100,99,0.633,32.8,33.1,32.6,3.968,3.0,187,8.1,4.2,-0.00012,-0.00015,34.2,36.4,19,0,.,.,8.10,0.00,0.00
15min,AgWx,beryljct,423,04DEC2019:20:30:00,34.3,12.92,34.0,33.6,33.3,33.7,32.9,99,100,99,0.645,33.1,33.6,32.8,5.305,4.3,202,22,5.7,-0.00010,-0.00012,34.2,36.4,18,0,.,.,8.10,0.00,0.00
15min,AgWx,beryljct,423,04DEC2019:20:45:00,34.4,12.91,33.0,32.6,33.0,34.0,32.6,99,99,98,0.619,32.7,33.9,32.3,5.809,6.5,295,12,9.2,-0.00008,-0.00008,34.2,36.4,18,0,.,.,8.10,0.00,0.00
15min,AgWx,beryljct,423,04DEC2019:21:00:00,34.3,12.91,34.6,33.6,32.7,33.6,32.6,99,99,99,0.648,32.5,33.5,32.3,3.398,4.1,289,11,5.7,-0.00010,-0.00012,34.2,36.4,18,0,.,.,8.10,0.00,0.00
15min,AgWx,beryljct,423,04DEC2019:21:15:00,34.8,12.89,36.5,36.2,36.0,36.7,33.7,99,100,97,0.699,35.7,36.7,33.5,4.253,4.4,212,24,5.8,-0.00010,-0.00012,34.2,36.4,19,0,.,.,8.09,0.00,0.00
15min,AgWx,beryljct,423,04DEC2019:21:30:00,35.6,12.89,36.4,36.4,36.9,37.3,36.2,96,97,94,0.689,35.8,36.3,35.0,8.88,7.0,178,13,9.1,-0.00006,-0.00007,34.2,36.4,18,0,.,.,8.10,0.01,0.01
15min,AgWx,beryljct,423,04DEC2019:21:45:00,36.2,12.89,37.2,36.7,36.5,36.9,36.0,95,96,94,0.703,35.3,35.9,34.7,6.862,7.7,189,8.1,9.7,-0.00005,-0.00005,34.2,36.4,19,0,.,.,8.10,0.00,0.00
15min,AgWx,beryljct,423,04DEC2019:22:00:00,36.6,12.87,37.8,37.4,37.4,37.7,36.7,93,96,91,0.691,35.6,36.4,34.9,7.98,7.7,186,8.3,9.7,-0.00004,-0.00004,34.2,36.4,18,0,.,.,8.10,0.00,0.00
15min,AgWx,beryljct,423,04DEC2019:22:15:00,36.8,12.88,36.6,37.2,37.0,37.4,36.6,92,93,91,0.694,35.0,35.4,34.5,4.494,6.6,177,7.7,8.0,-0.00005,-0.00005,34.2,36.4,18,0,.,.,8.11,0.00,0.00
15min,AgWx,beryljct,423,04DEC2019:22:30:00,36.9,12.87,37.9,37.4,37.0,37.4,36.3,93,94,91,0.695,35.1,35.6,34.0,8.02,6.8,162,8.6,9.0,-0.00005,-0.00005,34.2,36.4,18,0,.,.,8.10,0.00,0.00
15min,AgWx,beryljct,423,04DEC2019:22:45:00,37.1,12.87,36.9,36.2,37.1,37.6,36.0,92,94,91,0.676,34.9,35.3,34.1,5.174,5.6,187,17,7.9,-0.00006,-0.00006,34.2,36.4,18,0,.,.,8.11,0.00,0.00
15min,AgWx,beryljct,423,04DEC2019:23:00:00,37.1,12.86,37.2,37.4,36.8,37.6,36.3,94,95,92,0.699,35.3,35.9,34.7,5.13,5.2,208,13,7.1,-0.00007,-0.00008,34.2,36.4,18,0,.,.,8.10,0.00,0.00
15min,AgWx,beryljct,423,04DEC2019:23:15:00,37.3,12.85,38.1,37.8,37.6,38.0,37.0,92,94,91,0.717,35.5,36.1,34.8,3.573,4.1,212,9.9,6.1,-0.00008,-0.00009,34.2,36.4,19,0,.,.,8.12,0.01,0.01
15min,AgWx,beryljct,423,04DEC2019:23:30:00,37.3,12.84,36.8,36.7,36.5,37.7,35.6,94,96,92,0.704,34.9,35.9,34.0,4.494,3.4,205,11,4.8,-0.00010,-0.00012,34.2,36.4,19,0,.,.,8.12,0.01,0.01
15min,AgWx,beryljct,423,04DEC2019:23:45:00,37.2,12.83,36.7,36.3,36.3,36.7,36.0,96,97,95,0.700,35.2,35.6,34.7,1.25,2.4,202,11,4.6,-0.00013,-0.00016,34.2,36.4,18,0,.,.,8.13,0.01,0.01
15min,AgWx,bigpiney,439,04DEC2019:00:00:00,6.5,12.6,6.0,5.4,6.3,7.7,5.3,88,90,87,0.170,3.5,5.2,2.3,3.288,2.7,123,24,4.3,-0.00005,-0.00006,32.5,33.8,51,0,0,0.0,5.68,0.00,0.00
15min,AgWx,bigpiney,439,04DEC2019:00:15:00,6.4,12.59,3.9,4.3,3.0,5.4,0.9,87,90,84,0.164,-0.0,2.5,-2.8,0.088,2.1,44,23,3.9,-0.00005,-0.00006,32.5,33.8,51,0,0,0.0,5.68,0.00,0.00
15min,AgWx,bigpiney,439,04DEC2019:00:30:00,6.0,12.57,5.6,4.7,3.8,4.7,2.8,88,89,86,0.168,1.0,2.1,-0.5,1.359,0.6,190,6.6,2.0,-0.00009,-0.00013,32.5,33.8,51,0,0,0.0,5.68,0.00,0.00
15min,AgWx,bigpiney,439,04DEC2019:00:45:00,5.6,12.56,3.0,2.6,4.4,5.6,2.6,88,89,86,0.147,1.5,3.1,-0.6,4.538,3.7,201,11,4.8,-0.00004,-0.00004,32.5,33.8,51,0,0,0.0,5.68,0.00,0.00
15min,AgWx,bigpiney,439,04DEC2019:01:00:00,5.2,12.55,5.6,4.4,3.4,4.5,2.5,87,89,86,0.163,0.5,1.9,-0.8,4.911,4.6,218,4.9,5.2,-0.00003,-0.00003,32.5,33.8,51,0,0,0.0,5.68,0.00,0.00
15min,AgWx,bigpiney,439,04DEC2019:01:15:00,4.8,12.54,5.0,4.5,5.5,7.0,4.4,88,90,85,0.162,2.6,4.6,1.1,3.924,5.3,223,2.7,6.2,-0.00002,-0.00002,32.5,33.8,51,0,0,0.0,5.68,0.00,0.00
15min,AgWx,bigpiney,439,04DEC2019:01:30:00,4.7,12.52,3.8,3.1,3.8,4.8,2.6,86,87,85,0.151,0.6,1.9,-0.9,5.809,4.8,220,4.1,6.2,-0.00002,-0.00002,32.5,33.8,51,0,0,0.0,5.68,0.00,0.00
15min,AgWx,bigpiney,439,04DEC2019:01:45:00,4.6,12.52,1.6,1.7,2.6,3.3,1.7,86,86,85,0.139,-0.7,0.1,-1.8,4.932,5.0,219,3.1,6.0,-0.00002,-0.00002,32.5,33.8,51,0,0,0.0,5.68,0.00,0.00
15min,AgWx,bigpiney,439,04DEC2019:02:00:00,4.6,12.51,2.5,1.6,1.3,1.9,0.6,85,87,84,0.141,-2.1,-1.2,-3.0,5.196,4.9,218,3.7,6.2,-0.00002,-0.00002,32.5,33.8,51,0,0,0.0,5.68,0.00,0.00
15min,AgWx,bigpiney,439,04DEC2019:02:15:00,4.5,12.51,5.9,4.5,2.7,4.5,1.5,86,88,85,0.164,-0.5,1.7,-1.9,5.064,4.7,231,8.4,6.7,-0.00002,-0.00002,32.5,33.8,51,0,0,0.0,5.68,0.00,0.00
15min,AgWx,bigpiney,439,04DEC2019:02:30:00,4.7,12.49,9.4,9.1,8.0,9.4,4.7,89,90,87,0.203,5.5,6.7,1.9,0.285,2.5,275,18,5.2,-0.00006,-0.00007,32.5,33.8,51,0,0,0.0,5.68,0.00,0.00
15min,AgWx,bigpiney,439,04DEC2019:02:45:00,5.2,12.49,5.7,6.6,8.2,9.3,6.6,87,89,86,0.176,5.2,6.7,3.2,1.315,2.3,208,7.0,3.6,-0.00006,-0.00008,32.5,33.8,51,0,0,0.0,5.68,0.00,0.00
15min,AgWx,bigpiney,439,04DEC2019:03:00:00,5.5,12.49,5.8,3.9,5.6,7.4,3.7,86,89,85,0.155,2.4,4.8,0.1,1.688,1.1,199,23,3.2,-0.00008,-0.00011,32.5,33.8,51,0,0,0.0,5.68,0.00,0.00
15min,AgWx,bigpiney,439,04DEC2019:03:15:00,5.6,12.48,4.1,4.5,5.9,7.3,4.1,87,89,84,0.158,2.9,4.8,0.8,1.754,1.7,216,9.3,3.0,-0.00007,-0.00009,32.5,33.8,51,0,0,0.0,5.68,0.00,0.00
15min,AgWx,bigpiney,439,04DEC2019:03:30:00,5.5,12.47,4.4,4.0,4.9,5.4,4.0,87,88,84,0.158,1.8,2.6,0.3,1.513,0.9,284,36,1.8,-0.00009,-0.00012,32.5,33.8,51,0,0,0.0,5.68,0.00,0.00
15min,AgWx,bigpiney,439,04DEC2019:03:45:00,5.1,12.46,3.7,3.1,3.0,4.1,2.5,86,87,86,0.152,-0.2,0.9,-0.6,3.201,2.4,330,7.3,3.6,-0.00005,-0.00006,32.5,33.8,51,0,0,0.0,5.68,0.00,0.00
15min,AgWx,bigpiney,439,04DEC2019:04:00:00,4.8,12.45,3.0,2.2,3.2,3.6,2.2,87,87,86,0.144,0.1,0.6,-1.1,0.482,2.0,315,16,3.5,-0.00006,-0.00007,32.5,33.8,51,0,0,0.0,5.68,0.00,0.00
15min,AgWx,bigpiney,439,04DEC2019:04:15:00,4.3,12.45,3.1,2.5,1.1,2.5,-1.9,86,89,82,0.149,-2.1,-0.2,-6.1,0,0.3,220,14,1.1,-0.00009,-0.00014,32.5,33.8,51,0,0,0.0,5.68,0.00,0.00
15min,AgWx,bigpiney,439,04DEC2019:04:30:00,3.7,12.45,4.1,3.2,2.8,3.2,2.4,87,88,87,0.153,-0.1,0.2,-0.4,0,0.0,229,0.3,0.5,-0.00011,-0.00017,32.5,33.8,51,0,0,0.0,5.68,0.00,0.00
15min,AgWx,bigpiney,439,04DEC2019:04:45:00,3.2,12.44,2.2,1.6,2.7,3.4,1.6,87,88,86,0.140,-0.3,0.5,-1.7,0,0.4,12,3.0,1.4,-0.00010,-0.00014,32.5,33.8,51,0,0,0.0,5.68,0.00,0.00
15min,AgWx,bigpiney,439,04DEC2019:05:00:00,2.8,12.44,0.7,0.1,1.6,2.4,0.1,86,87,84,0.129,-1.6,-0.5,-3.5,0,0.5,30,15,1.8,-0.00009,-0.00013,32.5,33.8,51,0,0,0.0,5.68,0.00,0.00
15min,AgWx,bigpiney,439,04DEC2019:05:15:00,2.4,12.43,1.8,1.1,0.7,1.2,0.1,86,86,85,0.138,-2.6,-2.0,-3.4,1.6,0.8,302,11,1.9,-0.00008,-0.00010,32.5,33.8,51,0,0,0.0,5.68,0.00,0.00
15min,AgWx,bigpiney,439,04DEC2019:05:30:00,2.1,12.43,1.9,1.0,1.1,1.4,0.8,86,86,85,0.137,-2.2,-1.8,-2.7,0.526,1.3,300,11,1.8,-0.00006,-0.00008,32.5,33.8,51,0,0,0.0,5.68,0.00,0.00
15min,AgWx,bigpiney,439,04DEC2019:05:45:00,1.9,12.43,3.0,2.7,2.0,2.7,1.0,87,87,86,0.149,-1.0,-0.4,-2.2,0.417,1.0,287,12,1.8,-0.00008,-0.00010,32.5,33.8,51,0,0,0.0,5.68,0.00,0.00
15min,AgWx,bigpiney,439,04DEC2019:06:00:00,1.8,12.41,3.3,3.1,2.7,3.3,2.2,86,87,85,0.151,-0.4,0.3,-1.2,1.6,1.1,231,8.6,1.9,-0.00007,-0.00010,32.5,33.8,51,0,0,0.0,5.68,0.00,0.00
15min,AgWx,bigpiney,439,04DEC2019:06:15:00,1.2,12.41,3.8,3.1,2.9,3.9,1.8,86,87,84,0.151,-0.4,0.9,-1.8,1.578,1.8,216,5.1,2.5,-0.00006,-0.00007,32.5,33.8,51,0,0,0.0,5.68,0.00,0.00
15min,AgWx,bigpiney,439,04DEC2019:06:30:00,0.7,12.41,5.2,4.4,3.6,4.4,2.9,87,87,86,0.162,0.4,1.4,-0.3,0.943,1.2,212,6.4,1.7,-0.00007,-0.00010,32.5,33.8,51,0,0,0.0,5.68,0.00,0.00
15min,AgWx,bigpiney,439,04DEC2019:06:45:00,0.4,12.4,4.3,3.7,3.7,4.6,3.0,86,87,85,0.155,0.4,1.6,-0.6,1.14,1.1,203,6.7,1.6,-0.00008,-0.00010,32.5,33.8,51,0,0,0.0,5.68,0.00,0.00
15min,AgWx,bigpiney,439,04DEC2019:07:00:00,-0.0,12.4,4.9,4.1,3.8,4.1,3.6,86,87,86,0.159,0.6,1.1,0.3,1.293,1.3,223,9.8,1.7,-0.00007,-0.00010,32.5,33.8,51,0,0,0.0,5.68,0.00,0.00
15min,AgWx,bigpiney,439,04DEC2019:07:15:00,-0.4,12.39,4.6,3.4,4.0,4.5,3.0,86,87,84,0.152,0.8,1.4,-0.7,0.636,0.7,230,9.6,1.3,-0.00009,-0.00012,32.4,33.8,51,0,0,0.0,5.68,0.00,0.00
15min,AgWx,bigpiney,439,04DEC2019:07:30:00,-0.8,12.42,3.4,2.5,3.6,4.2,2.2,86,87,84,0.145,0.3,1.1,-1.5,0,0.1,245,2.9,0.6,-0.00011,-0.00017,32.4,33.8,51,2,0,0.0,5.68,0.00,0.00
15min,AgWx,bigpiney,439,04DEC2019:07:45:00,-1.1,12.56,2.9,3.1,2.0,3.2,0.6,85,88,83,0.152,-1.4,0.3,-3.3,0.965,0.4,231,9.0,1.0,-0.00008,-0.00012,32.4,33.8,51,8,0,0.0,5.68,0.00,0.00
15min,AgWx,bigpiney,439,04DEC2019:08:00:00,-1.4,14.98,2.2,3.2,3.5,4.6,1.9,87,88,83,0.148,0.4,1.6,-2.1,0.658,0.9,221,6.1,1.2,-0.00009,-0.00009,32.4,33.8,51,45,0,0.0,5.68,0.00,0.00
15min,AgWx,bigpiney,439,04DEC2019:08:15:00,-0.9,14.99,1.2,0.5,1.1,2.8,-0.2,84,85,82,0.132,-2.7,-1.0,-4.2,0.46,0.9,212,8.2,1.3,-0.00001,-0.00001,32.4,33.8,51,80,0,0.0,5.68,0.00,0.00